Time,TemperatureF,DewpointF,PressureIn,WindDirection,WindDirectionDegrees,WindSpeedMPH,WindSpeedGustMPH,Humidity,HourlyPrecipIn,Conditions,Clouds,dailyrainin,SoftwareType,DateUTC
2017-05-26 00:04:00,50.2,47.1,29.75,NE,50,0.0,7.0,89,0.00,,,0.00,Wunderground v.1.15,2017-05-26 07:04:00,
2017-05-26 00:14:00,50.3,47.5,29.75,NE,50,0.0,7.0,90,0.00,,,0.00,Wunderground v.1.15,2017-05-26 07:14:00,
2017-05-26 00:24:00,50.2,47.1,29.75,NE,50,0.0,7.0,89,0.00,,,0.00,Wunderground v.1.15,2017-05-26 07:24:00,
2017-05-26 00:34:00,50.1,47.0,29.75,NE,50,0.0,7.0,89,0.00,,,0.00,Wunderground v.1.15,2017-05-26 07:34:00,
2017-05-26 00:44:00,50.1,47.0,29.76,NE,50,0.0,7.0,89,0.00,,,0.00,Wunderground v.1.15,2017-05-26 07:44:00,
2017-05-26 00:49:00,50.1,47.0,29.76,NE,50,0.0,7.0,89,0.00,,,0.00,Wunderground v.1.15,2017-05-26 07:49:00,
2017-05-26 00:54:00,50.1,47.0,29.76,NE,50,0.0,7.0,89,0.00,,,0.00,Wunderground v.1.15,2017-05-26 07:54:00,
2017-05-26 01:04:00,49.9,46.8,29.76,NE,50,0.0,7.0,89,0.00,,,0.00,Wunderground v.1.15,2017-05-26 08:04:00,
2017-05-26 01:09:00,49.9,46.8,29.76,NE,50,0.0,7.0,89,0.00,,,0.00,Wunderground v.1.15,2017-05-26 08:09:00,
2017-05-26 01:19:00,50.2,47.1,29.76,NE,50,0.0,7.0,89,0.00,,,0.00,Wunderground v.1.15,2017-05-26 08:19:00,
2017-05-26 01:24:00,50.2,47.1,29.75,NE,50,0.0,7.0,89,0.00,,,0.00,Wunderground v.1.15,2017-05-26 08:24:00,
2017-05-26 01:34:00,50.1,47.0,29.76,NE,50,0.0,7.0,89,0.00,,,0.00,Wunderground v.1.15,2017-05-26 08:34:00,
2017-05-26 01:44:00,50.0,47.8,29.76,NE,50,0.0,7.0,92,0.00,,,0.00,Wunderground v.1.15,2017-05-26 08:44:00,
2017-05-26 01:49:00,49.9,46.8,29.75,NE,50,0.0,7.0,89,0.00,,,0.00,Wunderground v.1.15,2017-05-26 08:49:00,
2017-05-26 01:59:00,50.0,46.9,29.75,NE,50,0.0,7.0,89,0.00,,,0.00,Wunderground v.1.15,2017-05-26 08:59:00,
2017-05-26 02:09:00,50.2,46.8,29.75,NE,50,0.0,7.0,88,0.00,,,0.00,Wunderground v.1.15,2017-05-26 09:09:00,
2017-05-26 02:14:00,50.6,46.9,29.75,NE,50,0.0,7.0,87,0.00,,,0.00,Wunderground v.1.15,2017-05-26 09:14:00,
2017-05-26 02:19:00,50.9,46.6,29.75,NE,50,0.0,7.0,85,0.00,,,0.00,Wunderground v.1.15,2017-05-26 09:19:00,
2017-05-26 02:24:00,51.2,46.5,29.75,NE,50,0.0,7.0,84,0.00,,,0.00,Wunderground v.1.15,2017-05-26 09:24:00,
2017-05-26 02:34:00,51.7,46.4,29.75,NE,50,0.0,7.0,82,0.00,,,0.00,Wunderground v.1.15,2017-05-26 09:34:00,
2017-05-26 02:39:00,51.8,46.2,29.75,NE,50,0.0,7.0,81,0.00,,,0.00,Wunderground v.1.15,2017-05-26 09:39:00,
2017-05-26 02:49:00,51.8,46.2,29.75,NE,50,0.0,7.0,81,0.00,,,0.00,Wunderground v.1.15,2017-05-26 09:49:00,
2017-05-26 02:54:00,51.8,46.2,29.75,NE,50,0.0,7.0,81,0.00,,,0.00,Wunderground v.1.15,2017-05-26 09:54:00,
2017-05-26 02:59:00,51.9,46.3,29.75,NE,50,0.0,7.0,81,0.00,,,0.00,Wunderground v.1.15,2017-05-26 09:59:00,
2017-05-26 03:04:00,52.0,46.3,29.75,NE,50,0.0,7.0,81,0.00,,,0.00,Wunderground v.1.15,2017-05-26 10:04:00,
2017-05-26 03:14:00,52.0,46.3,29.75,NE,50,0.0,7.0,81,0.00,,,0.00,Wunderground v.1.15,2017-05-26 10:14:00,
2017-05-26 03:19:00,52.2,46.5,29.75,NE,50,0.0,7.0,81,0.00,,,0.00,Wunderground v.1.15,2017-05-26 10:19:00,
2017-05-26 03:29:00,52.3,46.3,29.75,NE,50,0.0,7.0,80,0.00,,,0.00,Wunderground v.1.15,2017-05-26 10:29:00,
2017-05-26 03:39:00,52.2,46.2,29.75,NE,50,0.0,7.0,80,0.00,,,0.00,Wunderground v.1.15,2017-05-26 10:39:00,
2017-05-26 03:44:00,52.2,46.2,29.75,NE,50,0.0,7.0,80,0.00,,,0.00,Wunderground v.1.15,2017-05-26 10:44:00,
2017-05-26 03:54:00,52.0,46.0,29.75,NE,50,0.0,7.0,80,0.00,,,0.00,Wunderground v.1.15,2017-05-26 10:54:00,
2017-05-26 03:59:00,51.9,45.9,29.75,NE,50,0.0,7.0,80,0.00,,,0.00,Wunderground v.1.15,2017-05-26 10:59:00,
2017-05-26 04:09:00,51.5,45.9,29.75,NE,50,0.0,7.0,81,0.00,,,0.00,Wunderground v.1.15,2017-05-26 11:09:00,
2017-05-26 04:19:00,51.1,45.8,29.75,NE,50,0.0,7.0,82,0.00,,,0.00,Wunderground v.1.15,2017-05-26 11:19:00,
2017-05-26 04:24:00,50.9,45.9,29.76,NE,50,0.0,7.0,83,0.00,,,0.00,Wunderground v.1.15,2017-05-26 11:24:00,
2017-05-26 04:34:00,50.8,45.8,29.76,NE,50,0.0,7.0,83,0.00,,,0.00,Wunderground v.1.15,2017-05-26 11:34:00,
2017-05-26 04:39:00,50.8,45.8,29.76,NE,50,0.0,7.0,83,0.00,,,0.00,Wunderground v.1.15,2017-05-26 11:39:00,
2017-05-26 04:44:00,50.7,45.7,29.76,NE,50,0.0,7.0,83,0.00,,,0.00,Wunderground v.1.15,2017-05-26 11:44:00,
2017-05-26 04:49:00,50.5,45.5,29.76,NE,50,0.0,7.0,83,0.00,,,0.00,Wunderground v.1.15,2017-05-26 11:49:00,
2017-05-26 04:54:00,50.4,45.7,29.76,NE,50,0.0,7.0,84,0.00,,,0.00,Wunderground v.1.15,2017-05-26 11:54:00,
2017-05-26 04:59:00,50.1,45.5,29.76,NE,50,0.0,7.0,84,0.00,,,0.00,Wunderground v.1.15,2017-05-26 11:59:00,
2017-05-26 05:04:00,49.9,45.3,29.76,NE,50,0.0,7.0,84,0.00,,,0.00,Wunderground v.1.15,2017-05-26 12:04:00,
2017-05-26 05:14:00,49.9,45.6,29.77,NE,50,0.0,7.0,85,0.00,,,0.00,Wunderground v.1.15,2017-05-26 12:14:00,
2017-05-26 05:19:00,49.8,45.5,29.77,NE,50,0.0,7.0,85,0.00,,,0.00,Wunderground v.1.15,2017-05-26 12:19:00,
2017-05-26 05:29:00,49.7,45.7,29.77,NE,50,0.0,7.0,86,0.00,,,0.00,Wunderground v.1.15,2017-05-26 12:29:00,
2017-05-26 05:39:00,49.6,45.6,29.77,NE,50,0.0,7.0,86,0.00,,,0.00,Wunderground v.1.15,2017-05-26 12:39:00,
2017-05-26 05:49:00,50.1,45.8,29.78,NE,50,0.0,7.0,85,0.00,,,0.00,Wunderground v.1.15,2017-05-26 12:49:00,
2017-05-26 05:59:00,50.4,45.7,29.78,NE,50,0.0,7.0,84,0.00,,,0.00,Wunderground v.1.15,2017-05-26 12:59:00,
2017-05-26 06:09:00,50.6,45.6,29.78,NE,50,0.0,7.0,83,0.00,,,0.00,Wunderground v.1.15,2017-05-26 13:09:00,
2017-05-26 06:14:00,50.7,45.7,29.79,NE,45,0.0,7.0,83,0.00,,,0.00,Wunderground v.1.15,2017-05-26 13:14:00,
2017-05-26 06:19:00,50.7,45.7,29.79,NE,45,0.0,7.0,83,0.00,,,0.00,Wunderground v.1.15,2017-05-26 13:19:00,
2017-05-26 06:29:00,50.9,46.2,29.79,NE,45,0.0,7.0,84,0.00,,,0.00,Wunderground v.1.15,2017-05-26 13:29:00,
2017-05-26 06:39:00,51.3,46.0,29.79,WSW,240,0.0,7.0,82,0.00,,,0.00,Wunderground v.1.15,2017-05-26 13:39:00,
2017-05-26 06:49:00,51.5,46.5,29.80,WSW,240,0.0,7.0,83,0.00,,,0.00,Wunderground v.1.15,2017-05-26 13:49:00,
2017-05-26 06:54:00,51.7,46.7,29.80,WSW,240,0.0,7.0,83,0.00,,,0.00,Wunderground v.1.15,2017-05-26 13:54:00,
2017-05-26 07:04:00,52.2,46.5,29.80,WSW,239,0.0,7.0,81,0.00,,,0.00,Wunderground v.1.15,2017-05-26 14:04:00,
2017-05-26 07:14:00,52.9,46.9,29.81,WSW,239,0.0,7.0,80,0.00,,,0.00,Wunderground v.1.15,2017-05-26 14:14:00,
2017-05-26 07:24:00,53.5,46.8,29.81,WSW,239,0.0,7.0,78,0.00,,,0.00,Wunderground v.1.15,2017-05-26 14:24:00,
2017-05-26 07:34:00,54.1,47.0,29.81,SW,214,1.0,7.0,77,0.00,,,0.00,Wunderground v.1.15,2017-05-26 14:34:00,
2017-05-26 07:39:00,54.4,47.0,29.82,SSW,205,1.0,7.0,76,0.00,,,0.00,Wunderground v.1.15,2017-05-26 14:39:00,
2017-05-26 07:44:00,54.6,47.2,29.81,SSW,198,1.0,7.0,76,0.00,,,0.00,Wunderground v.1.15,2017-05-26 14:44:00,
2017-05-26 07:54:00,55.0,47.6,29.82,SSW,195,1.0,7.0,76,0.00,,,0.00,Wunderground v.1.15,2017-05-26 14:54:00,
2017-05-26 08:04:00,55.3,47.5,29.82,SSW,194,1.0,7.0,75,0.00,,,0.00,Wunderground v.1.15,2017-05-26 15:04:00,
2017-05-26 08:09:00,55.5,47.7,29.82,SSW,194,0.0,7.0,75,0.00,,,0.00,Wunderground v.1.15,2017-05-26 15:09:00,
2017-05-26 08:19:00,56.0,47.8,29.82,South,190,0.0,7.0,74,0.00,,,0.00,Wunderground v.1.15,2017-05-26 15:19:00,
2017-05-26 08:24:00,56.3,47.8,29.82,South,186,0.0,7.0,73,0.00,,,0.00,Wunderground v.1.15,2017-05-26 15:24:00,
2017-05-26 08:29:00,56.6,48.0,29.83,South,186,0.0,7.0,73,0.00,,,0.00,Wunderground v.1.15,2017-05-26 15:29:00,
2017-05-26 08:34:00,56.9,47.6,29.83,South,180,0.0,7.0,71,0.00,,,0.00,Wunderground v.1.15,2017-05-26 15:34:00,
2017-05-26 08:39:00,57.0,46.9,29.83,South,180,0.0,7.0,69,0.00,,,0.00,Wunderground v.1.15,2017-05-26 15:39:00,
2017-05-26 08:44:00,57.2,47.1,29.83,South,180,0.0,7.0,69,0.00,,,0.00,Wunderground v.1.15,2017-05-26 15:44:00,
2017-05-26 08:49:00,57.4,46.9,29.83,South,180,0.0,7.0,68,0.00,,,0.00,Wunderground v.1.15,2017-05-26 15:49:00,
2017-05-26 08:54:00,57.6,47.1,29.84,SE,136,0.0,7.0,68,0.00,,,0.00,Wunderground v.1.15,2017-05-26 15:54:00,
2017-05-26 08:59:00,58.0,47.9,29.84,SE,136,0.0,7.0,69,0.00,,,0.00,Wunderground v.1.15,2017-05-26 15:59:00,
2017-05-26 09:04:00,58.7,47.8,29.84,SE,136,0.0,7.0,67,0.00,,,0.00,Wunderground v.1.15,2017-05-26 16:04:00,
2017-05-26 09:14:00,60.2,48.4,29.84,SE,138,0.0,7.0,65,0.00,,,0.00,Wunderground v.1.15,2017-05-26 16:14:00,
2017-05-26 09:19:00,60.6,47.9,29.84,SE,139,0.0,7.0,63,0.00,,,0.00,Wunderground v.1.15,2017-05-26 16:19:00,
2017-05-26 09:24:00,61.0,48.7,29.84,ESE,111,1.0,7.0,64,0.00,,,0.00,Wunderground v.1.15,2017-05-26 16:24:00,
2017-05-26 09:29:00,61.5,48.4,29.84,ESE,111,1.0,1.0,62,0.00,,,0.00,Wunderground v.1.15,2017-05-26 16:29:00,
2017-05-26 09:34:00,62.0,48.8,29.84,SE,127,1.0,7.0,62,0.00,,,0.00,Wunderground v.1.15,2017-05-26 16:34:00,
2017-05-26 09:39:00,62.6,49.0,29.84,South,174,1.0,7.0,61,0.00,,,0.00,Wunderground v.1.15,2017-05-26 16:39:00,
2017-05-26 09:49:00,62.6,49.4,29.84,SE,143,1.0,1.0,62,0.00,,,0.00,Wunderground v.1.15,2017-05-26 16:49:00,
2017-05-26 09:59:00,63.2,48.2,29.84,SSE,153,2.0,7.0,58,0.00,,,0.00,Wunderground v.1.15,2017-05-26 16:59:00,
2017-05-26 10:04:00,63.1,48.1,29.84,SE,144,2.0,7.0,58,0.00,,,0.00,Wunderground v.1.15,2017-05-26 17:04:00,
2017-05-26 10:09:00,63.1,49.0,29.84,SE,142,2.0,7.0,60,0.00,,,0.00,Wunderground v.1.15,2017-05-26 17:09:00,
2017-05-26 10:14:00,63.5,48.5,29.84,SE,144,1.0,7.0,58,0.00,,,0.00,Wunderground v.1.15,2017-05-26 17:14:00,
2017-05-26 10:24:00,64.0,48.5,29.84,SSE,150,1.0,7.0,57,0.00,,,0.00,Wunderground v.1.15,2017-05-26 17:24:00,
2017-05-26 10:29:00,64.0,48.5,29.85,SE,140,2.0,2.0,57,0.00,,,0.00,Wunderground v.1.15,2017-05-26 17:29:00,
2017-05-26 10:34:00,63.9,48.8,29.85,South,170,2.0,7.0,58,0.00,,,0.00,Wunderground v.1.15,2017-05-26 17:34:00,
2017-05-26 10:39:00,63.9,48.8,29.85,SSE,161,2.0,2.0,58,0.00,,,0.00,Wunderground v.1.15,2017-05-26 17:39:00,
2017-05-26 10:44:00,64.1,48.5,29.85,SSE,155,2.0,4.0,57,0.00,,,0.00,Wunderground v.1.15,2017-05-26 17:44:00,
2017-05-26 10:49:00,64.3,49.2,29.85,SSE,155,2.0,7.0,58,0.00,,,0.00,Wunderground v.1.15,2017-05-26 17:49:00,
2017-05-26 10:54:00,64.5,48.9,29.85,South,171,2.0,7.0,57,0.00,,,0.00,Wunderground v.1.15,2017-05-26 17:54:00,
2017-05-26 10:59:00,64.3,49.7,29.85,SSE,163,2.0,2.0,59,0.00,,,0.00,Wunderground v.1.15,2017-05-26 17:59:00,
2017-05-26 11:04:00,65.0,50.3,29.85,SSE,153,1.0,4.0,59,0.00,,,0.00,Wunderground v.1.15,2017-05-26 18:04:00,
2017-05-26 11:09:00,65.2,50.5,29.85,SSE,150,2.0,2.0,59,0.00,,,0.00,Wunderground v.1.15,2017-05-26 18:09:00,
2017-05-26 11:14:00,65.5,50.3,29.85,SSE,162,2.0,7.0,58,0.00,,,0.00,Wunderground v.1.15,2017-05-26 18:14:00,
2017-05-26 11:19:00,65.8,49.7,29.85,SSE,155,2.0,7.0,56,0.00,,,0.00,Wunderground v.1.15,2017-05-26 18:19:00,
2017-05-26 11:24:00,65.9,50.2,29.85,South,173,2.0,7.0,57,0.00,,,0.00,Wunderground v.1.15,2017-05-26 18:24:00,
2017-05-26 11:29:00,66.5,50.3,29.85,SSE,158,1.0,7.0,56,0.00,,,0.00,Wunderground v.1.15,2017-05-26 18:29:00,
2017-05-26 11:34:00,66.9,50.2,29.85,South,182,1.0,7.0,55,0.00,,,0.00,Wunderground v.1.15,2017-05-26 18:34:00,
2017-05-26 11:39:00,66.5,49.3,29.85,South,170,2.0,2.0,54,0.00,,,0.00,Wunderground v.1.15,2017-05-26 18:39:00,
2017-05-26 11:44:00,66.3,50.6,29.86,SSE,157,2.0,7.0,57,0.00,,,0.00,Wunderground v.1.15,2017-05-26 18:44:00,
2017-05-26 11:49:00,66.5,50.3,29.85,SSE,155,1.0,1.0,56,0.00,,,0.00,Wunderground v.1.15,2017-05-26 18:49:00,
2017-05-26 11:59:00,67.4,49.7,29.86,ESE,117,1.0,7.0,53,0.00,,,0.00,Wunderground v.1.15,2017-05-26 18:59:00,
2017-05-26 12:04:00,67.2,50.0,29.86,WSW,248,1.0,7.0,54,0.00,,,0.00,Wunderground v.1.15,2017-05-26 19:04:00,
2017-05-26 12:09:00,66.6,49.4,29.86,SE,135,1.0,7.0,54,0.00,,,0.00,Wunderground v.1.15,2017-05-26 19:09:00,
2017-05-26 12:14:00,65.9,50.2,29.86,SSE,160,1.0,7.0,57,0.00,,,0.00,Wunderground v.1.15,2017-05-26 19:14:00,
2017-05-26 12:19:00,65.6,50.9,29.86,SSE,153,1.0,1.0,59,0.00,,,0.00,Wunderground v.1.15,2017-05-26 19:19:00,
2017-05-26 12:24:00,65.5,50.3,29.86,ENE,68,1.0,7.0,58,0.00,,,0.00,Wunderground v.1.15,2017-05-26 19:24:00,
2017-05-26 12:34:00,63.7,50.0,29.86,SSE,148,2.0,7.0,61,0.00,,,0.00,Wunderground v.1.15,2017-05-26 19:34:00,
2017-05-26 12:39:00,63.2,50.0,29.86,SSE,165,2.0,7.0,62,0.00,,,0.00,Wunderground v.1.15,2017-05-26 19:39:00,
2017-05-26 12:44:00,63.1,50.3,29.86,SE,126,1.0,7.0,63,0.00,,,0.00,Wunderground v.1.15,2017-05-26 19:44:00,
2017-05-26 12:49:00,62.8,49.6,29.86,SSE,148,1.0,7.0,62,0.00,,,0.00,Wunderground v.1.15,2017-05-26 19:49:00,
2017-05-26 12:54:00,62.0,50.1,29.86,South,184,2.0,7.0,65,0.00,,,0.00,Wunderground v.1.15,2017-05-26 19:54:00,
2017-05-26 13:04:00,61.5,50.4,29.86,SSE,165,1.0,4.0,67,0.00,,,0.00,Wunderground v.1.15,2017-05-26 20:04:00,
2017-05-26 13:09:00,61.2,49.7,29.87,SE,145,1.0,7.0,66,0.00,,,0.00,Wunderground v.1.15,2017-05-26 20:09:00,
2017-05-26 13:14:00,61.0,50.4,29.87,SE,125,2.0,7.0,68,0.00,,,0.00,Wunderground v.1.15,2017-05-26 20:14:00,
2017-05-26 13:19:00,61.3,50.6,29.87,SE,138,1.0,7.0,68,0.00,,,0.00,Wunderground v.1.15,2017-05-26 20:19:00,
2017-05-26 13:24:00,61.7,51.0,29.88,SE,139,1.0,7.0,68,0.00,,,0.00,Wunderground v.1.15,2017-05-26 20:24:00,
2017-05-26 13:34:00,62.3,50.4,29.88,SSE,155,1.0,7.0,65,0.00,,,0.00,Wunderground v.1.15,2017-05-26 20:34:00,
2017-05-26 13:39:00,62.4,50.9,29.88,SSE,155,1.0,7.0,66,0.00,,,0.00,Wunderground v.1.15,2017-05-26 20:39:00,
2017-05-26 13:44:00,62.2,50.7,29.88,South,171,1.0,7.0,66,0.00,,,0.00,Wunderground v.1.15,2017-05-26 20:44:00,
2017-05-26 13:49:00,62.0,51.3,29.88,SE,126,1.0,1.0,68,0.00,,,0.00,Wunderground v.1.15,2017-05-26 20:49:00,
2017-05-26 13:54:00,62.6,51.1,29.88,SSW,208,1.0,2.0,66,0.00,,,0.00,Wunderground v.1.15,2017-05-26 20:54:00,
2017-05-26 13:59:00,62.8,50.9,29.88,ESE,119,1.0,7.0,65,0.00,,,0.00,Wunderground v.1.15,2017-05-26 20:59:00,
2017-05-26 14:09:00,63.0,51.0,29.88,East,92,1.0,7.0,65,0.00,,,0.00,Wunderground v.1.15,2017-05-26 21:09:00,
2017-05-26 14:14:00,63.3,50.5,29.89,ENE,76,1.0,7.0,63,0.00,,,0.00,Wunderground v.1.15,2017-05-26 21:14:00,
2017-05-26 14:19:00,63.4,51.4,29.88,ENE,76,1.0,1.0,65,0.00,,,0.00,Wunderground v.1.15,2017-05-26 21:19:00,
2017-05-26 14:24:00,64.0,51.1,29.88,SE,138,0.0,7.0,63,0.00,,,0.00,Wunderground v.1.15,2017-05-26 21:24:00,
2017-05-26 14:29:00,64.9,52.4,29.88,SE,136,1.0,1.0,64,0.00,,,0.00,Wunderground v.1.15,2017-05-26 21:29:00,
2017-05-26 14:39:00,65.9,51.6,29.88,SSE,151,2.0,2.0,60,0.00,,,0.00,Wunderground v.1.15,2017-05-26 21:39:00,
2017-05-26 14:44:00,65.4,51.1,29.88,SSE,155,1.0,7.0,60,0.00,,,0.00,Wunderground v.1.15,2017-05-26 21:44:00,
2017-05-26 14:49:00,65.1,51.8,29.88,SE,144,1.0,1.0,62,0.00,,,0.00,Wunderground v.1.15,2017-05-26 21:49:00,
2017-05-26 14:54:00,65.5,50.3,29.88,SSE,154,1.0,7.0,58,0.00,,,0.00,Wunderground v.1.15,2017-05-26 21:54:00,
2017-05-26 14:59:00,65.7,51.4,29.88,SSE,151,1.0,7.0,60,0.00,,,0.00,Wunderground v.1.15,2017-05-26 21:59:00,
2017-05-26 15:09:00,65.9,51.6,29.88,East,86,1.0,7.0,60,0.00,,,0.00,Wunderground v.1.15,2017-05-26 22:09:00,
2017-05-26 15:14:00,65.5,51.2,29.88,East,90,1.0,7.0,60,0.00,,,0.00,Wunderground v.1.15,2017-05-26 22:14:00,
2017-05-26 15:19:00,65.3,51.1,29.89,East,90,1.0,1.0,60,0.00,,,0.00,Wunderground v.1.15,2017-05-26 22:19:00,
2017-05-26 15:24:00,65.1,50.9,29.89,East,90,0.0,7.0,60,0.00,,,0.00,Wunderground v.1.15,2017-05-26 22:24:00,
2017-05-26 15:29:00,64.5,50.7,29.89,SSE,161,1.0,7.0,61,0.00,,,0.00,Wunderground v.1.15,2017-05-26 22:29:00,
2017-05-26 15:34:00,64.2,51.3,29.89,SSE,161,1.0,7.0,63,0.00,,,0.00,Wunderground v.1.15,2017-05-26 22:34:00,
2017-05-26 15:39:00,64.2,51.3,29.89,SSE,161,0.0,7.0,63,0.00,,,0.00,Wunderground v.1.15,2017-05-26 22:39:00,
2017-05-26 15:44:00,64.4,52.0,29.89,SSE,161,0.0,7.0,64,0.00,,,0.00,Wunderground v.1.15,2017-05-26 22:44:00,
2017-05-26 15:49:00,64.4,52.0,29.89,SSE,161,0.0,7.0,64,0.00,,,0.00,Wunderground v.1.15,2017-05-26 22:49:00,
2017-05-26 15:54:00,64.1,51.7,29.89,SSE,161,0.0,7.0,64,0.00,,,0.00,Wunderground v.1.15,2017-05-26 22:54:00,
2017-05-26 16:04:00,63.0,51.0,29.89,SE,139,1.0,7.0,65,0.00,,,0.00,Wunderground v.1.15,2017-05-26 23:04:00,
2017-05-26 16:14:00,62.6,50.7,29.90,SE,139,0.0,7.0,65,0.00,,,0.00,Wunderground v.1.15,2017-05-26 23:14:00,
2017-05-26 16:19:00,62.3,50.4,29.90,ESE,104,0.0,7.0,65,0.00,,,0.00,Wunderground v.1.15,2017-05-26 23:19:00,
2017-05-26 16:24:00,62.1,51.0,29.90,ESE,104,0.0,7.0,67,0.00,,,0.00,Wunderground v.1.15,2017-05-26 23:24:00,
2017-05-26 16:29:00,62.1,51.0,29.90,ESE,104,0.0,7.0,67,0.00,,,0.00,Wunderground v.1.15,2017-05-26 23:29:00,
2017-05-26 16:34:00,62.0,50.5,29.90,ESE,104,0.0,7.0,66,0.00,,,0.00,Wunderground v.1.15,2017-05-26 23:34:00,
2017-05-26 16:39:00,61.9,51.2,29.90,ESE,104,0.0,7.0,68,0.00,,,0.00,Wunderground v.1.15,2017-05-26 23:39:00,
2017-05-26 16:49:00,61.7,50.6,29.90,NW,311,1.0,1.0,67,0.00,,,0.00,Wunderground v.1.15,2017-05-26 23:49:00,
2017-05-26 16:54:00,61.5,50.8,29.90,South,173,2.0,2.0,68,0.00,,,0.00,Wunderground v.1.15,2017-05-26 23:54:00,
2017-05-26 16:59:00,61.6,51.3,29.91,South,173,1.0,1.0,69,0.00,,,0.00,Wunderground v.1.15,2017-05-26 23:59:00,
2017-05-26 17:04:00,61.8,50.7,29.90,South,171,1.0,7.0,67,0.00,,,0.00,Wunderground v.1.15,2017-05-27 00:04:00,
2017-05-26 17:09:00,61.8,50.7,29.91,South,171,1.0,7.0,67,0.00,,,0.00,Wunderground v.1.15,2017-05-27 00:09:00,
2017-05-26 17:19:00,61.2,50.2,29.90,SE,146,2.0,7.0,67,0.00,,,0.00,Wunderground v.1.15,2017-05-27 00:19:00,
2017-05-26 17:24:00,61.0,50.8,29.90,SE,146,1.0,7.0,69,0.00,,,0.00,Wunderground v.1.15,2017-05-27 00:24:00,
2017-05-26 17:29:00,61.2,50.9,29.91,SE,146,1.0,1.0,69,0.00,,,0.00,Wunderground v.1.15,2017-05-27 00:29:00,
2017-05-26 17:34:00,61.2,50.6,29.90,ESE,115,1.0,7.0,68,0.00,,,0.00,Wunderground v.1.15,2017-05-27 00:34:00,
2017-05-26 17:39:00,61.2,50.9,29.91,ESE,115,1.0,1.0,69,0.00,,,0.00,Wunderground v.1.15,2017-05-27 00:39:00,
2017-05-26 17:44:00,61.2,50.2,29.91,SE,130,1.0,7.0,67,0.00,,,0.00,Wunderground v.1.15,2017-05-27 00:44:00,
2017-05-26 17:54:00,61.2,50.6,29.90,SE,128,0.0,7.0,68,0.00,,,0.00,Wunderground v.1.15,2017-05-27 00:54:00,
2017-05-26 17:59:00,61.2,50.6,29.90,WNW,301,0.0,7.0,68,0.00,,,0.00,Wunderground v.1.15,2017-05-27 00:59:00,
2017-05-26 18:04:00,61.2,50.6,29.90,WNW,301,0.0,7.0,68,0.00,,,0.00,Wunderground v.1.15,2017-05-27 01:04:00,
2017-05-26 18:09:00,61.0,50.4,29.90,WNW,300,0.0,7.0,68,0.00,,,0.00,Wunderground v.1.15,2017-05-27 01:09:00,
2017-05-26 18:14:00,60.9,50.7,29.90,WNW,300,0.0,7.0,69,0.00,,,0.00,Wunderground v.1.15,2017-05-27 01:14:00,
2017-05-26 18:24:00,60.4,51.0,29.90,WNW,300,0.0,7.0,71,0.00,,,0.00,Wunderground v.1.15,2017-05-27 01:24:00,
2017-05-26 18:29:00,60.0,50.9,29.90,WNW,300,0.0,7.0,72,0.00,,,0.00,Wunderground v.1.15,2017-05-27 01:29:00,
2017-05-26 18:34:00,59.9,50.8,29.90,WNW,300,0.0,7.0,72,0.00,,,0.00,Wunderground v.1.15,2017-05-27 01:34:00,
2017-05-26 18:39:00,59.8,51.1,29.90,WNW,300,0.0,7.0,73,0.00,,,0.00,Wunderground v.1.15,2017-05-27 01:39:00,
2017-05-26 18:44:00,59.6,50.6,29.90,SSE,158,0.0,7.0,72,0.00,,,0.00,Wunderground v.1.15,2017-05-27 01:44:00,
2017-05-26 18:54:00,59.6,50.6,29.90,SE,144,1.0,7.0,72,0.00,,,0.00,Wunderground v.1.15,2017-05-27 01:54:00,
2017-05-26 18:59:00,59.7,50.7,29.90,SE,144,1.0,1.0,72,0.00,,,0.00,Wunderground v.1.15,2017-05-27 01:59:00,
2017-05-26 19:04:00,59.8,50.8,29.90,SSE,156,0.0,4.0,72,0.00,,,0.00,Wunderground v.1.15,2017-05-27 02:04:00,
2017-05-26 19:09:00,59.8,50.8,29.90,SSE,160,1.0,7.0,72,0.00,,,0.00,Wunderground v.1.15,2017-05-27 02:09:00,
2017-05-26 19:14:00,59.8,51.1,29.90,SSE,160,1.0,7.0,73,0.00,,,0.00,Wunderground v.1.15,2017-05-27 02:14:00,
2017-05-26 19:29:00,59.7,51.4,29.90,SSE,160,0.0,7.0,74,0.00,,,0.00,Wunderground v.1.15,2017-05-27 02:29:00,
2017-05-26 19:34:00,59.5,51.2,29.90,SSE,160,0.0,7.0,74,0.00,,,0.00,Wunderground v.1.15,2017-05-27 02:34:00,
2017-05-26 19:39:00,59.2,50.9,29.90,SSE,160,0.0,7.0,74,0.00,,,0.00,Wunderground v.1.15,2017-05-27 02:39:00,
2017-05-26 19:44:00,58.9,51.0,29.90,SE,136,0.0,7.0,75,0.00,,,0.00,Wunderground v.1.15,2017-05-27 02:44:00,
2017-05-26 19:49:00,58.7,50.8,29.91,SE,136,0.0,7.0,75,0.00,,,0.00,Wunderground v.1.15,2017-05-27 02:49:00,
2017-05-26 19:59:00,58.2,50.7,29.91,SE,136,0.0,7.0,76,0.00,,,0.00,Wunderground v.1.15,2017-05-27 02:59:00,
2017-05-26 20:04:00,57.9,50.7,29.91,SE,136,0.0,7.0,77,0.00,,,0.00,Wunderground v.1.15,2017-05-27 03:04:00,
2017-05-26 20:09:00,57.6,50.4,29.91,SE,136,0.0,7.0,77,0.00,,,0.00,Wunderground v.1.15,2017-05-27 03:09:00,
2017-05-26 20:14:00,57.3,50.5,29.91,SE,136,0.0,7.0,78,0.00,,,0.00,Wunderground v.1.15,2017-05-27 03:14:00,
2017-05-26 20:19:00,56.9,50.5,29.91,SE,136,0.0,7.0,79,0.00,,,0.00,Wunderground v.1.15,2017-05-27 03:19:00,
2017-05-26 20:24:00,56.6,50.2,29.91,SE,136,0.0,7.0,79,0.00,,,0.00,Wunderground v.1.15,2017-05-27 03:24:00,
2017-05-26 20:34:00,56.1,50.0,29.92,SE,135,0.0,7.0,80,0.00,,,0.00,Wunderground v.1.15,2017-05-27 03:34:00,
2017-05-26 20:39:00,55.9,50.2,29.92,SE,135,0.0,7.0,81,0.00,,,0.00,Wunderground v.1.15,2017-05-27 03:39:00,
2017-05-26 20:44:00,55.5,49.8,29.92,SE,135,0.0,7.0,81,0.00,,,0.00,Wunderground v.1.15,2017-05-27 03:44:00,
2017-05-26 20:49:00,55.3,49.9,29.92,SE,135,0.0,7.0,82,0.00,,,0.00,Wunderground v.1.15,2017-05-27 03:49:00,
2017-05-26 20:54:00,55.0,49.6,29.92,SE,135,0.0,7.0,82,0.00,,,0.00,Wunderground v.1.15,2017-05-27 03:54:00,
2017-05-26 21:04:00,54.6,49.5,29.92,SE,135,0.0,7.0,83,0.00,,,0.00,Wunderground v.1.15,2017-05-27 04:04:00,
2017-05-26 21:09:00,54.4,49.7,29.92,SE,135,0.0,7.0,84,0.00,,,0.00,Wunderground v.1.15,2017-05-27 04:09:00,
2017-05-26 21:14:00,54.1,49.4,29.92,SE,135,0.0,7.0,84,0.00,,,0.00,Wunderground v.1.15,2017-05-27 04:14:00,
2017-05-26 21:19:00,53.9,49.5,29.93,SE,135,0.0,7.0,85,0.00,,,0.00,Wunderground v.1.15,2017-05-27 04:19:00,
2017-05-26 21:24:00,53.7,49.3,29.92,SE,135,0.0,7.0,85,0.00,,,0.00,Wunderground v.1.15,2017-05-27 04:24:00,
2017-05-26 21:29:00,53.5,49.4,29.92,SE,135,0.0,7.0,86,0.00,,,0.00,Wunderground v.1.15,2017-05-27 04:29:00,
2017-05-26 21:34:00,53.2,49.1,29.92,SE,135,0.0,7.0,86,0.00,,,0.00,Wunderground v.1.15,2017-05-27 04:34:00,
2017-05-26 21:39:00,53.1,49.3,29.93,SE,135,0.0,7.0,87,0.00,,,0.00,Wunderground v.1.15,2017-05-27 04:39:00,
2017-05-26 21:44:00,52.9,49.1,29.93,SE,135,0.0,7.0,87,0.00,,,0.00,Wunderground v.1.15,2017-05-27 04:44:00,
2017-05-26 21:49:00,52.8,49.0,29.93,SE,135,0.0,7.0,87,0.00,,,0.00,Wunderground v.1.15,2017-05-27 04:49:00,
2017-05-26 21:54:00,52.7,49.2,29.93,SE,135,0.0,7.0,88,0.00,,,0.00,Wunderground v.1.15,2017-05-27 04:54:00,
2017-05-26 21:59:00,52.5,49.0,29.93,SE,135,0.0,7.0,88,0.00,,,0.00,Wunderground v.1.15,2017-05-27 04:59:00,
2017-05-26 22:09:00,52.4,49.3,29.93,SE,135,0.0,7.0,89,0.00,,,0.00,Wunderground v.1.15,2017-05-27 05:09:00,
2017-05-26 22:14:00,52.3,49.5,29.93,SE,135,0.0,7.0,90,0.00,,,0.00,Wunderground v.1.15,2017-05-27 05:14:00,
2017-05-26 22:19:00,52.2,49.4,29.93,SE,135,0.0,7.0,90,0.00,,,0.00,Wunderground v.1.15,2017-05-27 05:19:00,
2017-05-26 22:24:00,52.2,49.4,29.93,SE,135,0.0,7.0,90,0.00,,,0.00,Wunderground v.1.15,2017-05-27 05:24:00,
2017-05-26 22:29:00,52.0,49.2,29.93,SE,135,0.0,7.0,90,0.00,,,0.00,Wunderground v.1.15,2017-05-27 05:29:00,